Find STARLINK-38128

NORAD ID: 100001 Int'l Des: 2026-160A Owner: SPXS Country: US Constellation: starlink operational

現在のビュー

3D地球を読み込み中...

About STARLINK-38128

STARLINK-38128 (NORAD 100001) is a starlink constellation satellite (v2 mini) launched Jul 14, 2026 by SPXS of US. with a mass of 575.00 kg.

次回通過

Passes for default location (London). Set your location on the main map for personalized predictions.

高度履歴

Loading altitude history...

軌道要素

1 A0001U 26160A 26224.63635782 .00090785 00000-0 66043-3 0 9993
2 A0001 69.9987 304.9619 0003581 278.3685 81.7107 15.72918282 5878
Epoch: Aug 12, 2026 • Age: 24 hours

現在のステータス

高度 354.0 km
遠地点 / 近地点 N/A
速度 7.70 km/s
衛星直下点 -8.77°S, 61.2°W
打ち上げ日 Jul 14, 2026
運用期間 30 days
タイプ internet

技術仕様

分類 Payload
質量 575.00 kg
乾燥質量 530.00 kg
総質量 575.00 kg
長さ 0.30 m
直径 4.10 m
スパン 29.00 m
形状 Box + pan
製造者 SPXS
バスタイプ Starlink V2MO
フェーズステータス In Orbit
所有者/国 SPXS/US

Most Searched